Location: Berlin
(42.3812°N, 71.6370°W)
Time: 22:53:28
(UTC+00:00)

USA 267 - Pass Details

Date: 15 November 2025
Orbit: 1100 x 1108 km, 123.0° (Epoch: 21 November)

Event Time Altitude Azimuth Distance (km) Brightness Sun altitude
Rises 08:43:44 0° 48° (NE) 3,922 6.8 -32.1°
Reaches altitude 10° 08:46:13 10° 50° (NE) 2,961 6.1 -31.6°
Maximum altitude 08:52:47 81° 138° (SE) 1,115 3.2 -30.4°
Enters shadow 08:53:31 71° 202° (SSW) 1,158 3.2 -30.3°
